weather.gov     
National Weather Service

Regional Weather Roundup
NWS Homepage
This page is being discontinued on March 12, 2014.
The same data is available at this site. Please update your bookmarks.
Thank you, and we apologize for the inconvenience.
Please send an email to SR-SRH.Webmaster@noaa.gov with any concerns.


Current Version
Previous Version:    01  02  03  04  05  06  07  08  09  10  11  12  13  14  15  16  17  18  19  20  21  22  23  24  25  26  27  28  29  30  
   31  32  33  34  35  36  37  38  39  40  41  42  43  44  45  46  47  48  49  50  51  
[Printable]
364
ASUS45 KABQ 221310
RWRNM
WEATHER ROUNDUP FOR NEW MEXICO
NATIONAL WEATHER SERVICE ALBUQUERQUE NM
700 AM MDT TUE JUL 22 2014

NOTE: "FAIR" MEANS FEW OR NO CLOUDS BELOW 12,000 FEET AGL WITH NO
       SIGNIFICANT WEATHER OR OBSTRUCTIONS TO VISION.

      THIS PRODUCT IS RELEASED AS TWO VERSIONS.  ONE VERSION NEAR
      THE TOP OF THE HOUR CONTAINING PRELIMINARY DATA FROM ALBUQUERQUE
      AND OTHER STATIONS.  A FINAL VERSION WITH ADDITIONAL DATA IS
      ISSUED ABOUT 10 MINUTES AFTER THE HOUR.

NMZ501-503-504-510>518-221400-
NORTHWEST PLATEAU/NORTHCENTRAL MOUNTAINS

CITY           SKY/WX    TMP DP  RH WIND       PRES   REMARKS
FARMINGTON     CLEAR     61  30  31 E7        30.30R
LOS ALAMOS     MOCLDY    66  49  55 S3        30.44R
SANTA FE       PTCLDY    62  51  67 N6        30.36R
TAOS           SUNNY     55  45  67 N8        30.45R
ANGEL FIRE     FAIR      44  43  96 E3        30.55R

$$
NMZ402-403-502-505>509-221400-
WESTCENTRAL MOUNTAINS/SOUTHWEST MOUNTAINS

CITY           SKY/WX    TMP DP  RH WIND       PRES   REMARKS
GALLUP         MOCLDY    61  41  47 CALM      30.36R
GRANTS         CLOUDY    62  49  62 NW3       30.38R
SILVER CITY    CLEAR     66  46  48 NW7       30.26S

$$
NMZ407-409-411-412-221400-
SOUTHERN DESERTS

CITY           SKY/WX    TMP DP  RH WIND       PRES   REMARKS
LORDSBURG      FAIR      68  46  45 CALM      30.16R
DEMING         PTCLDY    67  50  54 W6        30.16R
LAS CRUCES     PTCLDY    74  52  46 W3        30.18R
HOLLOMAN AFB   CLEAR     72  53  51 E5        30.15R
ALAMOGORDO     CLEAR     72  52  49 NE3       30.17R
T OR C         PTCLDY    74  51  44 NW5       30.20R

$$
NMZ519>523-221400-
CENTRAL VALLEYS/CENTRAL HIGHLANDS

CITY           SKY/WX    TMP DP  RH WIND       PRES   REMARKS
ALBUQUERQUE    MOCLDY    78  50  37 NE3       30.27R
DOUBLE EAGLE   MOCLDY    70  54  56 CALM      30.31R
MORIARTY ARPT  FAIR      60  53  77 CALM      30.37S
CLINES CORNERS CLEAR     62  55  77 CALM      30.40S
BELEN          FAIR      70  54  56 W7        30.25S
SOCORRO        FAIR      76  49  39 CALM      30.22R

$$
NMZ524>526-539-540-221400-
SOUTHCENTRAL MOUNTAINS

CITY           SKY/WX    TMP DP  RH WIND       PRES   REMARKS
RUIDOSO        CLEAR     63  52  67 MISG      30.40S

$$
NMZ527>531-221400-
NORTHEAST HIGHLANDS/NORTHEAST PLAINS

CITY           SKY/WX    TMP DP  RH WIND       PRES   REMARKS
LAS VEGAS      MOSUNNY   59  55  87 SW3       30.39S
RATON          SUNNY     60  53  77 N6        30.35S
CLAYTON        SUNNY     71  57  61 W15       30.22R

$$
NMZ532>537-221400-
EASTCENTRAL PLAINS

CITY           SKY/WX    TMP DP  RH WIND       PRES   REMARKS
TUCUMCARI      SUNNY     72  63  73 W9        30.17R
CANNON AFB     PTSUNNY   68  65  91 W7        30.18R
CLOVIS AIRPORT NOT AVBL

$$
NMZ028-029-538-221400-
SOUTHEAST PLAINS

CITY           SKY/WX    TMP DP  RH WIND       PRES   REMARKS
ROSWELL        SUNNY     73  64  73 SW7       30.14S
ARTESIA        CLEAR     75  64  69 SE9       30.15R
CARLSBAD       CLEAR     77  68  73 E8        30.13R
HOBBS          SUNNY     73  61  64 E9        30.16F


$$




U.S. Dept. of Commerce
NOAA National Weather Service
1325 East West Highway
Silver Spring, MD 20910
E-mail: w-nws.webmaster@noaa.gov
Page last modified: May 16, 2007
NATIONAL WEATHER SERVICE: for Safety, for Work, for Fun - FOR LIFE